Find STARLINK-37580

NORAD ID: 799501196 Int'l Des: 2026-160U Constellation: starlink operational

現在のビュー

3D地球を読み込み中...

About STARLINK-37580

STARLINK-37580 (NORAD 799501196) is a starlink constellation satellite launched Jul 9, 2026

STARLINK-37580について

説明を読み込み中...

次回通過

Passes for default location (London). Set your location on the main map for personalized predictions.

高度履歴

Loading altitude history...

軌道要素

1 99999C 2026160U 26195.39631943 .00513120 00000-0 650160-4 0 1955
2 99999 70.0018 28.5936 0010198 259.8838 1.5958 16.06840677 12
Epoch: Jul 14, 2026 • Age: 8 hours